FW2288 Weather Reports


Display with metric or nautical units.
time (UTC)temp
F
wind
direction
speed
MPH
gust
MPH
rain 1hr
in
rain 24hr
in
rain mn
in
humidity
%
barometer
mb
20260510173104 72 350 8.0 19.0 0.00 0.00 0.00 44 1015.4
20260510172547 72 347 9.0 16.0 0.00 0.00 0.00 45 1015.5
20260510172047 71 313 8.0 16.0 0.00 0.00 0.00 41 1015.4
20260510171554 70 338 9.0 15.0 0.00 0.00 0.00 41 1015.6
20260510171047 70 282 6.0 15.0 0.00 0.00 0.00 43 1015.6
20260510170547 71 302 5.0 16.0 0.00 0.00 0.00 43 1015.8
20260510170056 70 333 9.0 16.0 0.00 0.00 0.00 41 1015.8
20260510165549 70 356 6.0 16.0 0.00 0.00 0.00 43 1015.8
20260510165049 70 330 9.0 21.0 0.00 0.00 0.00 46 1015.8
20260510164553 70 335 10.0 21.0 0.00 0.00 0.00 41 1015.6
20260510164048 70 333 11.0 20.0 0.00 0.00 0.00 40 1015.7
20260510163549 70 329 14.0 20.0 0.00 0.00 0.00 42 1015.6
20260510163056 70 312 9.0 17.0 0.00 0.00 0.00 43 1015.4
20260510162549 70 348 8.0 17.0 0.00 0.00 0.00 46 1015.5
20260510162048 70 336 11.0 18.0 0.00 0.00 0.00 46 1015.5
20260510161605 70 335 8.0 18.0 0.00 0.00 0.00 47 1015.6
20260510161047 70 277 11.0 16.0 0.00 0.00 0.00 46 1015.6
20260510160549 69 302 8.0 14.0 0.00 0.00 0.00 44 1015.7
20260510160132 69 292 8.0 17.0 0.00 0.00 0.00 46 1015.5
20260510155546 69 293 11.0 21.0 0.00 0.00 0.00 45 1015.5
20260510155047 69 323 9.0 21.0 0.00 0.00 0.00 45 1015.4
20260510154605 70 350 11.0 18.0 0.00 0.00 0.00 49 1015.4
20260510154048 69 354 10.0 18.0 0.00 0.00 0.00 48 1015.5
20260510153547 69 342 3.0 14.0 0.00 0.00 0.00 50 1015.6
20260510153058 68 323 7.0 14.0 0.00 0.00 0.00 48 1015.5
20260510152549 68 343 7.0 16.0 0.00 0.00 0.00 53 1015.4
20260510152049 67 319 7.0 16.0 0.00 0.00 0.00 52 1015.4
20260510151558 67 292 5.0 10.0 0.00 0.00 0.00 53 1015.4
20260510151050 67 250 5.0 10.0 0.00 0.00 0.00 55 1015.6
20260510150550 67 333 4.0 11.0 0.00 0.00 0.00 54 1015.6
20260510150055 67 330 4.0 11.0 0.00 0.00 0.00 56 1015.7
20260510145551 66 335 7.0 11.0 0.00 0.00 0.00 56 1015.7
20260510145048 66 310 4.0 12.0 0.00 0.00 0.00 57 1015.7
20260510144555 66 4 6.0 12.0 0.00 0.00 0.00 56 1015.6
20260510144049 66 3 4.0 9.0 0.00 0.00 0.00 59 1015.6
20260510143549 65 277 4.0 11.0 0.00 0.00 0.00 61 1015.6
20260510143054 65 263 6.0 13.0 0.00 0.00 0.00 60 1015.6
20260510142547 64 330 4.0 13.0 0.00 0.00 0.00 59 1015.6
20260510142045 64 300 5.0 12.0 0.00 0.00 0.00 61 1015.7
20260510141554 63 338 6.0 12.0 0.00 0.00 0.00 62 1015.7
20260510141048 64 347 3.0 9.0 0.00 0.00 0.00 63 1015.6
20260510140547 62 302 4.0 9.0 0.00 0.00 0.00 65 1015.6
20260510140057 62 305 4.0 9.0 0.00 0.00 0.00 64 1015.8
20260510135546 62 287 3.0 9.0 0.00 0.00 0.00 65 1015.7
20260510135048 61 297 2.0 7.0 0.00 0.00 0.00 67 1015.8
20260510134553 61 337 3.0 7.0 0.00 0.00 0.00 67 1015.8
20260510134049 60 303 3.0 7.0 0.00 0.00 0.00 69 1015.7
20260510133546 60 210 1.0 5.0 0.00 0.00 0.00 70 1015.7
20260510133053 60 207 0.0 4.0 0.00 0.00 0.00 71 1015.7
20260510132549 59 0 0.0 4.0 0.00 0.00 0.00 72 1015.6
20260510132048 58 0 1.0 5.0 0.00 0.00 0.00 73 1015.6
20260510131554 58 196 2.0 5.0 0.00 0.00 0.00 72 1015.4
20260510131048 58 212 3.0 5.0 0.00 0.00 0.00 73 1015.5
20260510130548 58 198 2.0 5.0 0.00 0.00 0.00 71 1015.3
20260510130053 58 203 2.0 5.0 0.00 0.00 0.00 72 1015.3
20260510125547 59 238 2.0 4.0 0.00 0.00 0.00 72 1015.4
20260510125049 58 323 2.0 4.0 0.00 0.00 0.00 73 1015.4
20260510124551 58 302 1.0 6.0 0.00 0.00 0.00 73 1015.1
20260510124047 57 258 2.0 6.0 0.00 0.00 0.00 74 1015.1
20260510123547 57 332 4.0 6.0 0.00 0.00 0.00 76 1015.1
20260510123052 56 237 2.0 6.0 0.00 0.00 0.00 79 1015.0
20260510122548 55 329 3.0 6.0 0.00 0.00 0.00 81 1014.8
20260510122048 54 342 1.0 3.0 0.00 0.00 0.00 82 1014.8
20260510121556 54 323 1.0 5.0 0.00 0.00 0.00 81 1014.7
20260510121050 55 0 1.0 5.0 0.00 0.00 0.00 78 1014.7
20260510120547 55 338 2.0 7.0 0.00 0.00 0.00 78 1014.5
20260510120053 55 335 3.0 8.0 0.00 0.00 0.00 78 1014.5
20260510115549 54 330 5.0 8.0 0.00 0.00 0.00 79 1014.5
20260510115047 54 340 4.0 8.0 0.00 0.00 0.00 79 1014.5
20260510114554 53 340 4.0 8.0 0.00 0.00 0.00 79 1014.4
20260510114048 53 342 3.0 7.0 0.00 0.00 0.00 80 1014.4
20260510113547 53 263 2.0 7.0 0.00 0.00 0.00 80 1014.3
20260510113057 52 323 5.0 7.0 0.00 0.00 0.00 81 1014.1
20260510112547 52 328 5.0 7.0 0.00 0.00 0.00 82 1014.0
20260510112051 52 338 4.0 7.0 0.00 0.00 0.00 82 1013.9
20260510111607 52 335 5.0 7.0 0.00 0.00 0.00 83 1013.7
20260510111047 52 330 4.0 7.0 0.00 0.00 0.00 83 1013.7
20260510110549 52 323 4.0 7.0 0.00 0.00 0.00 83 1013.8
20260510110059 51 309 3.0 6.0 0.00 0.00 0.00 85 1013.8
20260510105549 50 295 2.0 5.0 0.00 0.00 0.00 87 1013.6
20260510105049 50 265 2.0 4.0 0.00 0.00 0.00 87 1013.6
20260510104555 50 236 1.0 4.0 0.00 0.00 0.00 86 1013.5
20260510104048 50 242 2.0 4.0 0.00 0.00 0.00 86 1013.4
20260510103551 50 251 1.0 4.0 0.00 0.00 0.00 85 1013.4
20260510103055 51 256 1.0 4.0 0.00 0.00 0.00 84 1013.4
20260510102547 51 324 2.0 6.0 0.00 0.00 0.00 84 1013.2
20260510102047 51 315 2.0 6.0 0.00 0.00 0.00 84 1013.2
20260510101554 51 266 2.0 6.0 0.00 0.00 0.00 85 1013.3
20260510101050 51 273 3.0 6.0 0.00 0.00 0.00 85 1013.2
20260510100546 51 281 3.0 5.0 0.00 0.00 0.00 86 1013.1
20260510100055 50 278 3.0 5.0 0.00 0.00 0.00 87 1013.2
20260510095547 50 269 2.0 3.0 0.00 0.00 0.00 87 1013.0
20260510095046 50 247 1.0 4.0 0.00 0.00 0.00 85 1013.1
20260510094601 50 240 1.0 4.0 0.00 0.00 0.00 84 1013.0
20260510094047 51 240 2.0 5.0 0.00 0.00 0.00 83 1013.0
20260510093549 52 274 3.0 5.0 0.00 0.00 0.00 83 1013.1
20260510093110 52 286 2.0 5.0 0.00 0.00 0.00 84 1013.1
20260510092549 52 285 2.0 4.0 0.00 0.00 0.00 84 1013.0
20260510092047 52 279 1.0 5.0 0.00 0.00 0.00 84 1012.9
20260510091554 52 295 1.0 6.0 0.00 0.00 0.00 84 1013.0
20260510091047 52 354 3.0 6.0 0.00 0.00 0.00 83 1012.8
20260510090549 52 336 4.0 8.0 0.00 0.00 0.00 83 1012.7
20260510090117 52 305 4.0 8.0 0.00 0.00 0.00 83 1012.6
20260510085548 53 330 5.0 8.0 0.00 0.00 0.00 83 1012.5
20260510085048 53 338 6.0 8.0 0.00 0.00 0.00 83 1012.4
20260510084550 53 337 5.0 8.0 0.00 0.00 0.00 82 1012.5
20260510084048 53 322 5.0 8.0 0.00 0.00 0.00 82 1012.4
20260510083551 53 331 5.0 8.0 0.00 0.00 0.00 83 1012.4
20260510083109 53 315 4.0 6.0 0.00 0.00 0.00 83 1012.3
20260510082546 52 316 2.0 5.0 0.00 0.00 0.00 84 1012.4
20260510082048 51 323 1.0 5.0 0.00 0.00 0.00 86 1012.1
20260510081607 50 271 2.0 4.0 0.00 0.00 0.00 86 1012.3
20260510081048 50 228 2.0 4.0 0.00 0.00 0.00 84 1012.2
20260510080547 50 207 1.0 4.0 0.00 0.00 0.00 83 1012.1
20260510080056 51 214 2.0 4.0 0.00 0.00 0.00 82 1012.0
20260510075545 52 239 2.0 6.0 0.00 0.00 0.00 81 1011.9
20260510075048 52 288 2.0 6.0 0.00 0.00 0.00 83 1011.9
20260510074602 51 283 2.0 6.0 0.00 0.00 0.00 85 1011.7
20260510074049 50 294 2.0 5.0 0.00 0.00 0.00 85 1011.8
20260510073547 50 234 2.0 5.0 0.00 0.00 0.00 83 1011.9
20260510073052 51 211 2.0 4.0 0.00 0.00 0.00 82 1011.8
20260510072548 51 199 2.0 4.0 0.00 0.00 0.00 81 1011.9
20260510072047 52 233 1.0 4.0 0.00 0.00 0.00 79 1011.8
20260510071552 53 233 2.0 4.0 0.00 0.00 0.00 78 1011.9
20260510071046 54 219 1.0 4.0 0.00 0.00 0.00 78 1011.9
20260510070549 54 273 2.0 4.0 0.00 0.00 0.00 78 1011.9
20260510070054 54 261 2.0 4.0 0.00 0.00 0.00 79 1011.9
20260510065548 53 266 2.0 4.0 0.00 0.00 0.00 79 1011.8
20260510065047 53 237 2.0 5.0 0.00 0.00 0.00 79 1012.0
20260510064602 53 259 2.0 6.0 0.00 0.00 0.00 79 1011.9
20260510064047 53 268 3.0 6.0 0.00 0.00 0.00 78 1011.9
20260510063545 53 232 4.0 6.0 0.00 0.00 0.00 78 1011.9
20260510063056 53 224 3.0 5.0 0.00 0.00 0.00 78 1012.1
20260510062546 53 216 2.0 4.0 0.00 0.00 0.00 77 1012.0
20260510062048 53 218 2.0 4.0 0.00 0.00 0.00 77 1012.1
20260510061557 53 213 2.0 4.0 0.00 0.00 0.00 77 1012.1
20260510061048 54 205 2.0 4.0 0.00 0.00 0.00 77 1012.0
20260510060546 54 203 2.0 4.0 0.00 0.00 0.00 76 1012.1
20260510060054 54 205 2.0 4.0 0.00 0.00 0.00 76 1012.1
20260510055547 54 210 2.0 5.0 0.00 0.00 0.00 76 1012.1
20260510055048 54 194 2.0 5.0 0.00 0.00 0.00 75 1012.1
20260510054549 54 191 2.0 5.0 0.00 0.00 0.00 75 1012.2
20260510054048 55 187 2.0 5.0 0.00 0.00 0.00 75 1012.1
20260510053548 55 195 2.0 5.0 0.00 0.00 0.00 75 1012.2
20260510053050 54 212 2.0 5.0 0.00 0.00 0.00 75 1012.2
20260510052547 54 203 2.0 5.0 0.00 0.00 0.00 75 1012.1
20260510052046 54 212 2.0 5.0 0.00 0.00 0.00 75 1012.1
20260510051551 54 209 3.0 5.0 0.00 0.00 0.00 75 1012.2
20260510051050 55 229 3.0 5.0 0.00 0.00 0.00 74 1012.2
20260510050545 55 227 3.0 5.0 0.00 0.00 0.00 74 1012.1
20260510050054 55 246 2.0 5.0 0.00 0.00 0.00 73 1012.0
20260510045550 55 255 2.0 4.0 0.00 0.00 0.00 73 1011.9
20260510045049 55 268 1.0 5.0 0.00 0.00 0.00 73 1011.8
20260510044619 55 271 2.0 5.0 0.00 0.00 0.00 73 1011.9
20260510044048 55 236 2.0 5.0 0.00 0.00 0.00 72 1012.1
20260510043548 56 238 2.0 5.0 0.00 0.00 0.00 72 1012.1
20260510043058 56 236 3.0 5.0 0.00 0.00 0.00 72 1012.2
20260510042550 56 229 2.0 6.0 0.00 0.00 0.00 72 1012.3
20260510042051 56 224 3.0 6.0 0.00 0.00 0.00 72 1012.2
20260510041555 56 208 3.0 6.0 0.00 0.00 0.00 72 1012.2
20260510041050 55 201 3.0 6.0 0.00 0.00 0.00 73 1012.1
20260510040548 55 198 3.0 6.0 0.00 0.00 0.00 73 1012.0
20260510040053 55 178 4.0 6.0 0.00 0.00 0.00 73 1012.2
20260510035548 56 175 3.0 5.0 0.00 0.00 0.00 72 1012.2
20260510035046 56 165 3.0 5.0 0.00 0.00 0.00 72 1012.1
20260510034552 57 177 3.0 5.0 0.00 0.00 0.00 70 1012.0
20260510034046 58 186 2.0 5.0 0.00 0.00 0.00 68 1011.9
20260510033545 58 245 1.0 8.0 0.00 0.00 0.00 67 1012.0
20260510033059 59 253 3.0 8.0 0.00 0.00 0.00 67 1012.0
20260510032545 59 268 4.0 8.0 0.00 0.00 0.00 66 1012.0
20260510032045 59 237 4.0 8.0 0.00 0.00 0.00 66 1012.0
20260510031558 59 254 4.0 8.0 0.00 0.00 0.00 66 1011.9
20260510031051 59 259 4.0 10.0 0.00 0.00 0.00 66 1011.9
20260510030544 59 276 5.0 10.0 0.00 0.00 0.00 66 1011.8
20260510030058 59 243 4.0 8.0 0.00 0.00 0.00 66 1011.7
20260510025547 59 279 4.0 8.0 0.00 0.00 0.00 66 1011.6
20260510025047 59 283 4.0 8.0 0.00 0.00 0.00 66 1011.7
20260510024557 59 271 3.0 7.0 0.00 0.00 0.00 66 1011.6
20260510024047 59 251 3.0 7.0 0.00 0.00 0.00 65 1011.8
20260510023550 59 278 3.0 6.0 0.00 0.00 0.00 65 1011.7
20260510023104 59 253 3.0 6.0 0.00 0.00 0.00 65 1011.8
20260510022550 59 248 2.0 6.0 0.00 0.00 0.00 65 1011.6
20260510022050 60 240 2.0 8.0 0.00 0.00 0.00 64 1011.5
20260510021557 60 236 3.0 8.0 0.00 0.00 0.00 64 1011.5
20260510021049 59 294 3.0 7.0 0.00 0.00 0.00 65 1011.5
20260510020550 59 275 3.0 6.0 0.00 0.00 0.00 65 1011.5
20260510020100 59 243 2.0 5.0 0.00 0.00 0.00 65 1011.5
20260510015550 60 221 2.0 5.0 0.00 0.00 0.00 64 1011.6
20260510015050 60 232 3.0 5.0 0.00 0.00 0.00 63 1011.4
20260510014554 60 229 2.0 5.0 0.00 0.00 0.00 63 1011.4
20260510014049 60 246 2.0 6.0 0.00 0.00 0.00 63 1011.3
20260510013550 60 249 2.0 6.0 0.00 0.00 0.00 63 1011.1
20260510013058 60 264 3.0 6.0 0.00 0.00 0.00 63 1011.1
20260510012549 60 259 3.0 6.0 0.00 0.00 0.00 63 1010.8
20260510012049 60 210 3.0 5.0 0.00 0.00 0.00 63 1010.9
20260510011559 60 205 2.0 3.0 0.00 0.00 0.00 63 1010.8
20260510011049 60 188 1.0 4.0 0.00 0.00 0.00 62 1010.7
20260510010546 60 233 1.0 5.0 0.00 0.00 0.00 62 1010.6
20260510010131 60 241 2.0 6.0 0.00 0.00 0.00 62 1010.6
20260510005550 61 323 2.0 6.0 0.00 0.00 0.00 62 1010.3
20260510005049 61 323 3.0 6.0 0.00 0.00 0.00 61 1010.2
20260510004555 61 323 1.0 5.0 0.00 0.00 0.00 61 1010.2
20260510004049 61 323 3.0 5.0 0.00 0.00 0.00 62 1010.0
20260510003550 61 311 2.0 5.0 0.00 0.00 0.00 62 1010.0
20260510003057 61 323 3.0 5.0 0.00 0.00 0.00 63 1009.9
20260510002549 61 326 3.0 5.0 0.00 0.00 0.00 62 1009.9
20260510002049 61 330 2.0 6.0 0.00 0.00 0.00 62 1010.0
20260510001605 61 326 3.0 6.0 0.00 0.00 0.00 62 1010.0
20260510001049 61 4 3.0 5.0 0.00 0.00 0.00 61 1010.0
20260510000549 62 323 3.0 5.0 0.00 0.00 0.00 61 1010.0
20260510000057 62 329 2.0 4.0 0.00 0.00 0.00 60 1010.1
20260509235549 62 307 1.0 3.0 0.00 0.00 0.00 60 1010.0
20260509235049 62 318 2.0 4.0 0.00 0.00 0.00 59 1010.1
20260509234644 63 295 1.0 4.0 0.00 0.00 0.00 59 1010.0
20260509234050 63 0 1.0 5.0 0.00 0.00 0.00 59 1010.0
20260509233548 63 252 2.0 5.0 0.00 0.00 0.00 59 1010.1
20260509233055 63 261 2.0 5.0 0.00 0.00 0.00 59 1010.0
20260509232550 63 250 1.0 4.0 0.00 0.00 0.00 59 1009.9
20260509232049 63 293 2.0 5.0 0.00 0.00 0.00 59 1010.1
20260509231554 64 304 1.0 6.0 0.00 0.00 0.00 58 1009.9
20260509231048 64 289 2.0 6.0 0.00 0.00 0.00 57 1009.8
20260509230546 65 322 3.0 6.0 0.00 0.00 0.00 57 1009.7
20260509230058 65 315 3.0 8.0 0.00 0.00 0.00 57 1010.0
20260509225550 65 331 4.0 10.0 0.00 0.00 0.00 57 1009.8
20260509225049 65 328 4.0 10.0 0.00 0.00 0.00 55 1009.8
20260509224555 66 324 4.0 11.0 0.00 0.00 0.00 55 1009.8
20260509224051 66 341 5.0 11.0 0.00 0.00 0.00 55 1009.9
20260509223549 66 325 4.0 8.0 0.00 0.00 0.00 55 1009.8
20260509223056 65 321 4.0 8.0 0.00 0.00 0.00 55 1009.8
20260509222552 65 333 4.0 12.0 0.00 0.00 0.00 54 1009.8
20260509222049 66 307 4.0 12.0 0.00 0.00 0.00 53 1009.8
20260509221555 67 338 7.0 15.0 0.00 0.00 0.00 52 1009.7
20260509221049 67 288 5.0 15.0 0.00 0.00 0.00 52 1009.8
20260509220547 66 249 5.0 14.0 0.00 0.00 0.00 53 1009.9
20260509220109 66 323 5.0 14.0 0.00 0.00 0.00 52 1009.9
20260509215549 67 240 7.0 13.0 0.00 0.00 0.00 51 1009.8
20260509215048 68 286 4.0 11.0 0.00 0.00 0.00 49 1009.7
20260509214559 68 339 5.0 11.0 0.00 0.00 0.00 50 1009.8
20260509214049 67 314 6.0 18.0 0.00 0.00 0.00 50 1009.7
20260509213550 68 334 6.0 18.0 0.00 0.00 0.00 51 1009.6
20260509213058 68 335 8.0 18.0 0.00 0.00 0.00 49 1009.4
20260509212548 68 347 7.0 17.0 0.00 0.00 0.00 50 1009.5
20260509212047 68 303 9.0 21.0 0.00 0.00 0.00 50 1009.4
20260509211555 68 311 7.0 21.0 0.00 0.00 0.00 50 1009.3
20260509211053 68 335 13.0 21.0 0.00 0.00 0.00 50 1009.3
20260509210550 68 264 8.0 16.0 0.00 0.00 0.00 50 1009.1
20260509210057 67 311 9.0 16.0 0.00 0.00 0.00 49 1008.9
20260509205549 67 333 6.0 15.0 0.00 0.00 0.00 53 1008.8
20260509205051 66 324 10.0 18.0 0.00 0.00 0.00 52 1008.7
20260509204556 66 342 7.0 19.0 0.00 0.00 0.00 51 1008.8
20260509204049 66 337 10.0 19.0 0.00 0.00 0.00 51 1008.7
20260509203549 67 304 11.0 19.0 0.00 0.00 0.00 50 1008.7
20260509203141 67 285 10.0 17.0 0.00 0.00 0.00 51 1008.8
20260509202549 67 301 9.0 19.0 0.00 0.00 0.00 51 1008.8
20260509202052 67 335 11.0 19.0 0.00 0.00 0.00 50 1008.8
20260509201604 68 345 10.0 16.0 0.00 0.00 0.00 51 1008.7
20260509201048 67 319 8.0 15.0 0.00 0.00 0.00 50 1008.6
20260509200549 67 308 7.0 15.0 0.00 0.00 0.00 51 1008.8
20260509195548 67 326 7.0 14.0 0.00 0.00 0.00 50 1008.8
20260509195050 68 310 8.0 13.0 0.00 0.00 0.00 51 1008.7
20260509194555 67 219 7.0 13.0 0.00 0.00 0.00 52 1008.8
20260509194047 67 255 8.0 15.0 0.00 0.00 0.00 52 1008.8
20260509193549 67 345 8.0 15.0 0.00 0.00 0.00 52 1008.8
20260509193111 67 330 7.0 16.0 0.00 0.00 0.00 52 1008.7
20260509192550 67 339 6.0 17.0 0.00 0.00 0.00 54 1008.8
20260509192049 68 334 7.0 17.0 0.00 0.00 0.00 55 1008.8
20260509191612 68 341 10.0 17.0 0.00 0.00 0.00 53 1008.8
20260509191052 67 324 7.0 13.0 0.00 0.00 0.00 53 1008.7
20260509190548 68 347 7.0 13.0 0.00 0.00 0.00 52 1008.6
20260509190054 68 338 5.0 12.0 0.00 0.00 0.00 57 1008.5
20260509185550 67 275 4.0 12.0 0.00 0.00 0.00 54 1008.6
20260509185049 68 1 5.0 11.0 0.00 0.00 0.00 53 1008.7
20260509184552 67 341 5.0 11.0 0.00 0.00 0.00 56 1008.8
20260509184047 66 264 4.0 9.0 0.00 0.00 0.00 54 1008.7
20260509183549 67 0 1.0 8.0 0.00 0.00 0.00 52 1008.5
20260509183057 66 171 4.0 8.0 0.00 0.00 0.00 55 1008.7
20260509182549 66 272 5.0 10.0 0.00 0.00 0.00 55 1008.8
20260509182049 65 341 5.0 10.0 0.00 0.00 0.00 55 1008.7
20260509181601 66 257 4.0 13.0 0.00 0.00 0.00 52 1008.8
20260509181050 66 331 5.0 13.0 0.00 0.00 0.00 54 1008.8
20260509180550 66 353 5.0 11.0 0.00 0.00 0.00 55 1008.9
20260509180107 66 334 3.0 14.0 0.00 0.00 0.00 53 1008.9
20260509175549 66 313 8.0 14.0 0.00 0.00 0.00 54 1009.1
20260509175047 66 328 7.0 11.0 0.00 0.00 0.00 55 1009.0
20260509174552 65 287 5.0 10.0 0.00 0.00 0.00 57 1009.2
20260509174049 66 338 4.0 11.0 0.00 0.00 0.00 57 1009.1
20260509173548 66 6 5.0 12.0 0.00 0.00 0.00 58 1009.1